Epoch = 2007 Dec. 6.0 TT T = 2007 Dec. 17.3371 TT Peri. = 312.8443 e = 0.773589 Node = 51.6501 2000.0 q = 1.460069 AU Incl. = 24.5612 a = 6.448748 AU n = 0.0601854 P = 16.38 years
m1 = 9.0 + 5 logΔ + 25 log r(t - 50)